Regional Weather Roundup
Issued by NWS

Home | Current Version | Previous Version | Text Only | Print | Product List | Glossary On
Versions: 1 2 3 4 5 6 7 8 9 10 11 12 13 14 15 16 17 18 19 20 21 22 23 24 25 26 27
000
ASUS44 KBMX 252010
RWRAL

ALABAMA REGIONAL WEATHER ROUNDUP
NATIONAL WEATHER SERVICE BIRMINGHAM AL
300 PM CDT MON JUL 25 2016

NOTE: "FAIR" INDICATES FEW OR NO CLOUDS BELOW 12,000 FEET
WITH NO SIGNIFICANT WEATHER AND/OR OBSTRUCTIONS TO VISIBILITY.

THE REMARK "TC" DENOTES TEMPERATURE IN DEGREES CELSIUS.

ALZ001>011-014-016>018-020-252100-
NORTH ALABAMA

CITY           SKY/WX    TMP DP  RH WIND       PRES   REMARKS
MUSCLE SHOALS  SUNNY     94  69  44 SW9       30.00F HX  99
HUNTSVILLE     MOSUNNY   96  62  32 S8        30.00F HX  97
DECATUR        MOSUNNY   94  68  42 CALM      30.00F HX  98
HALEYVILLE     FAIR      94  72  48 SW8       30.04F HX 102
GADSDEN        SUNNY     94  69  44 CALM      30.00F HX  99
$$

ALZ012-013-022-023-030>036-040>044-252100-
WEST CENTRAL ALABAMA

CITY           SKY/WX    TMP DP  RH WIND       PRES   REMARKS
TUSCALOOSA     MOSUNNY   95  72  47 VRB7      29.98F HX 103
$$

ALZ015-024>027-033>036-040>044-252100-
CENTRAL ALABAMA

CITY           SKY/WX    TMP DP  RH WIND       PRES   REMARKS
BIRMINGHAM     MOSUNNY   95  70  44 SE7       30.02F HX 101
MONTGOMERY     MOSUNNY   95  71  45 S7        29.97F HX 102
SHELBY CO ARPT MOSUNNY   95  68  41 S8        30.00F HX  99
MAXWELL AFB    MOSUNNY   94  72  49 SE8       29.97F HX 102
GREENVILLE     FAIR      94  69  44 SE8       29.99F HX  99
$$

ALZ019-021-028-029-037-038-045>048-252100-
EAST CENTRAL ALABAMA

CITY           SKY/WX    TMP DP  RH WIND       PRES   REMARKS
ANNISTON       MOSUNNY   95  69  42 W7        30.00F HX 100
ALEXANDER CITY PTSUNNY   93  76  59 SE5       30.01S HX 105
AUBURN         MOSUNNY   95  67  39 VRB7      30.01F HX  99
$$

ALZ051>064-252100-
SOUTHWEST ALABAMA

CITY           SKY/WX    TMP DP  RH WIND       PRES   REMARKS
MOBILE         PTSUNNY   91  76  61 SE14      29.95F HX 103
BROOKLEY FIELD HVY RAIN  84  78  82 SE14G30   29.95F HX  95
EVERGREEN      SUNNY     94  68  42 E14       29.97F HX  98
$$

ALZ049-050-065>069-252100-
SOUTHEAST ALABAMA

CITY           SKY/WX    TMP DP  RH WIND       PRES   REMARKS
DOTHAN         SUNNY     92  68  45 SE10      30.03F HX  96
OZARK          MOSUNNY   93  71  49 E10       29.99F HX  99
TROY           SUNNY     92  71  50 S10       30.00F HX  98
EUFAULA        FAIR      97  72  44 S7        29.98F HX 105
$$




USA.gov is the U.S. government's official web portal to all federal, state and local government web resources and services.